#timestamp,LO_Frequency,Hit,StdDev 
1511586015.2,286047002.8,N
1511586035.9,286046998.9,N
1511586055.7,286046999.9,N
1511586075.6,286047001.4,N
1511586095.4,286047004.8,N
1511586115.2,286047002.4,N
1511586135.0,286046996.9,N
1511586135.9,286046996.9,N
1511586155.8,286047000.0,N
1511586175.6,286046998.7,N
1511586195.4,286046997.9,N
1511586215.3,286046991.7,N
1511586235.1,286046990.1,N
1511586255.8,286046988.9,N
1511586275.7,286046990.7,N
1511586295.5,286046989.5,N
1511586315.3,286046990.9,N
1511586335.2,286046987.5,N
1511586355.9,286046993.2,N
1511586375.7,286046988.9,N
1511586395.5,286046988.9,N
1511586415.4,286046989.8,N
1511586435.2,286046987.8,N
1511586455.0,286046985.4,N
1511586455.9,286046985.4,N
1511586475.8,286046985.9,N
1511586495.6,286046982.1,N
1511586515.4,286046987.9,N
1511586535.3,286046985.7,N
1511586555.1,286046986.7,N
1511586556.0,286046986.7,N
1511586575.8,286046987.8,N
1511586595.7,286046989.8,N
1511586615.5,286046987.1,N
1511586635.3,286046987.4,N
1511586655.2,286046991.6,N
1511586675.9,286046994.3,N
1511586695.7,286046993.7,N
1511586715.6,286046990.5,N
1511586735.4,286046992.9,N
1511586755.2,286046989.7,Y
1511586775.1,286046995.3,P
1511586776.0,286046995.3,N
1511586795.8,286046992.4,N
1511586815.6,286046992.7,N
1511586835.4,286046993.4,N
1511586855.3,286046994.0,N
1511586875.1,286046990.6,Y
1511586895.9,286046993.9,P
1511586915.7,286046996.7,P
1511586935.5,286046999.4,N
1511586955.3,286047001.8,N
1511586975.2,286047008.1,N
1511586995.0,286047003.3,N
1511586995.9,286047003.3,N
1511587015.7,286047005.7,N
1511587035.6,286047003.5,N
1511587055.4,286047008.5,N
1511587075.2,286047008.3,N
1511587095.1,286047005.9,N
1511587096.0,286047005.9,N
1511587115.8,286047005.6,N
1511587135.6,286047010.0,N
1511587155.5,286047015.2,Y
1511587175.3,286047021.8,P
1511587195.1,286047034.9,P
1511587215.9,286047039.3,P
1511587235.7,286047040.1,N
1511587255.5,286047033.9,N
1511587275.3,286047031.6,N
1511587295.2,286047028.7,N
1511587315.0,286047029.9,N
1511587315.9,286047029.9,N
1511587335.7,286047027.6,N
1511587355.6,286047031.1,Y
1511587375.4,286047008.5,P
1511587395.2,286047005.8,N
1511587415.1,286047002.6,N
1511587416.0,286047002.6,N
1511587435.8,286047008.8,N
1511587455.6,286047006.1,N
1511587475.5,286047005.9,N
1511587495.3,286047000.2,N
1511587515.1,286046996.0,N
1511587535.9,286046991.9,N
1511587555.7,286046991.8,N
1511587575.5,286046992.6,N
1511587595.4,286046990.4,N
1511587615.2,286046987.7,N
1511587635.0,286046989.1,N
1511587635.9,286046989.1,N
1511587655.8,286046985.9,N
1511587675.6,286046982.6,N
1511587695.4,286046987.9,N
1511587715.2,286046991.6,N
1511587735.1,286046989.7,N
1511587736.0,286046989.7,N
1511587755.8,286046987.3,N
1511587775.6,286046982.5,N
1511587795.5,286046981.9,N
1511587815.3,286046980.3,N
1511587835.1,286046976.9,N
1511587855.9,286046975.0,N
1511587875.7,286046979.1,N
1511587895.5,286046978.8,N
1511587915.4,286046978.2,N
1511587935.2,286046981.4,N
1511587955.0,286046977.8,N
1511587955.9,286046977.8,N
1511587975.8,286046980.0,N
1511587995.6,286046978.1,N
1511588015.4,286046976.8,Y
1511588035.3,286046988.7,P
1511588055.1,286046990.7,P
1511588056.0,286046990.7,P
1511588075.8,286046987.8,Y
1511588095.7,286047001.8,P
1511588115.5,286047007.2,N
1511588135.3,286047005.3,N
1511588155.2,286047004.2,N
1511588175.9,286047003.4,N
1511588195.7,286047005.2,N
1511588215.5,286047002.0,N
1511588235.4,286047002.4,N
1511588255.2,286047002.2,N
1511588275.0,286047000.4,N
1511588275.9,286047000.4,N
1511588295.8,286046999.6,N
1511588315.6,286046998.4,N
1511588335.4,286047001.2,N
1511588355.3,286046996.6,N
1511588375.1,286046996.5,N
1511588376.0,286046996.5,N
1511588395.8,286046999.3,N
1511588415.7,286046998.7,N
1511588435.5,286046996.6,N
1511588455.3,286046999.4,N
1511588475.1,286046998.7,N
1511588495.9,286046997.3,N
1511588515.7,286046997.4,N
1511588535.5,286046999.0,N
1511588555.4,286047001.4,N
1511588575.2,286047003.9,N
1511588595.0,286047003.4,N
1511588595.9,286047003.4,N
1511588615.8,286047002.9,N
1511588635.6,286047005.5,N
1511588655.4,286047007.2,N
1511588675.3,286047008.5,N
1511588695.1,286047015.6,Y
1511588715.8,286047016.9,P
1511588735.7,286047019.5,N
1511588755.5,286047019.2,N
1511588775.3,286047023.3,Y
1511588795.2,286047004.6,P
1511588815.0,286047005.7,N
1511588815.9,286047005.7,N
1511588835.7,286047004.3,N
1511588855.6,286047005.0,N
1511588875.4,286047006.7,N
1511588895.2,286047002.4,N
1511588915.1,286046998.2,N
1511588916.0,286046998.2,N
1511588935.8,286046996.7,N
1511588955.6,286046994.5,N
1511588975.5,286046991.0,N
1511588995.3,286046988.2,N
1511589015.1,286046988.0,N
1511589035.8,286046983.8,N
1511589055.7,286046985.2,N
1511589075.5,286046981.4,N
1511589095.3,286046984.3,N
1511589115.2,286046983.6,N
1511589135.9,286046982.4,N
1511589155.7,286046985.1,N
1511589175.6,286046982.2,N
1511589195.4,286046986.4,N
1511589215.2,286046988.2,N
1511589235.1,286046989.0,N
1511589236.0,286046989.0,N
1511589255.8,286046989.3,N
1511589275.6,286046989.4,N
1511589295.5,286046988.3,N
1511589315.3,286046982.7,N
1511589335.1,286046985.8,N
1511589355.8,286046987.6,N
1511589375.7,286046989.6,N
1511589395.5,286046989.8,N
1511589415.3,286046985.7,N
1511589435.2,286046984.3,N
1511589455.9,286046989.9,N
1511589475.7,286046989.0,N
1511589495.6,286046988.5,N
1511589515.4,286046987.8,Y
1511589535.2,286046999.5,P
1511589555.1,286046998.5,N
1511589556.0,286046998.5,N
1511589575.8,286046997.2,N
1511589595.6,286046995.4,N
